AKST,Max TemperatureF,Mean TemperatureF,Min TemperatureF,Max Dew PointF,MeanDew PointF,Min DewpointF,Max Humidity, Mean Humidity, Min Humidity, Max Sea Level PressureIn, Mean Sea Level PressureIn, Min Sea Level PressureIn, Max VisibilityMiles, Mean VisibilityMiles, Min VisibilityMiles, Max Wind SpeedMPH, Mean Wind SpeedMPH, Max Gust SpeedMPH,PrecipitationIn, CloudCover, Events, WindDirDegrees
2014-1-1,9,4,0,5,2,-4,92,83,78,29.98,29.83,29.72,6,2,0,48,35,55,0.00,0,Fog-Snow,102
2014-1-2,6,4,1,3,1,-1,92,89,83,30.27,30.06,29.84,3,1,0,38,32,47,0.00,6,Fog-Snow,95
2014-1-3,10,6,1,9,4,-2,92,88,85,30.40,30.33,30.28,2,1,0,36,29,41,0.00,7,Fog-Snow,95
2014-1-4,10,5,0,9,5,-4,92,85,77,30.46,30.40,30.31,10,5,1,39,31,45,0.00,0,Snow,107
2014-1-5,9,7,5,7,3,1,92,83,79,30.30,30.09,29.96,10,2,0,51,41,59,0.00,2,Fog-Snow,105
2014-1-6,8,4,1,7,3,-2,92,88,85,29.98,29.91,29.83,10,2,0,48,38,54,0.00,8,Fog-Snow,118
2014-1-7,7,2,-5,5,-1,-9,92,85,78,29.94,29.89,29.83,9,4,1,26,13,29,0.00,6,Snow,309
2014-1-8,-7,-12,-17,-11,-19,-21,92,83,77,29.95,29.89,29.86,10,4,0,18,15,,0.00,7,Fog-Snow,255
2014-1-9,-9,-12,-15,-13,-18,-20,86,81,77,29.89,29.84,29.74,10,2,0,46,23,58,0.00,8,Fog-Snow,269
2014-1-10,-9,-14,-16,-14,-18,-20,84,81,77,29.87,29.84,29.75,3,1,0,34,27,44,0.00,8,Fog-Snow,274
2014-1-11,-4,-6,-11,-6,-9,-15,92,84,78,29.73,29.45,29.33,2,1,0,41,29,46,0.00,8,Fog-Snow,278
2014-1-12,-5,-10,-15,-8,-10,-20,92,84,77,29.50,29.39,29.34,10,2,0,33,26,39,0.00,7,Fog-Snow,279
2014-1-13,-13,-14,-16,-18,-19,-21,84,79,75,29.68,29.62,29.50,10,10,6,16,11,,0.00,4,Snow,248
2014-1-14,-18,-22,-27,-24,-29,-33,83,77,73,29.64,29.47,29.39,10,9,2,15,9,,0.00,2,Snow,254
2014-1-15,-7,-16,-26,-11,-17,-31,84,79,74,30.07,29.83,29.55,10,4,0,32,21,36,0.00,5,Fog-Snow,274
2014-1-16,-24,-26,-31,-29,-33,-35,77,75,73,30.30,30.11,30.05,10,10,5,16,12,,0.00,0,Snow,254
2014-1-17,-14,-25,-34,-20,-24,-35,84,78,73,30.39,30.16,29.85,10,6,1,36,16,45,0.00,2,Snow,111
2014-1-18,-9,-11,-15,-13,-16,-20,84,79,77,29.84,29.61,29.49,5,1,0,48,36,56,0.00,8,Fog-Snow,75
2014-1-19,-9,-11,-13,-13,-15,-18,83,79,77,30.10,30.00,29.72,10,7,2,15,9,,0.00,6,Snow,72
2014-1-20,-8,-12,-16,-11,-16,-21,87,82,78,30.13,30.10,30.00,10,10,7,16,13,,0.00,0,,96
2014-1-21,3,-5,-13,1,-7,-17,92,86,82,30.00,29.70,29.44,10,8,2,23,13,,0.00,0,Snow,79
2014-1-22,3,-1,-5,0,-4,-8,92,85,78,30.06,29.84,29.49,10,9,7,15,11,,0.00,6,Snow,346
2014-1-23,1,-2,-5,-2,-5,-9,92,86,78,30.08,30.01,29.95,10,4,1,31,24,37,0.00,5,Snow,88
2014-1-24,1,0,0,-1,-3,-6,92,86,78,30.25,30.03,29.92,10,6,2,25,22,,0.00,8,Snow,83
2014-1-25,6,1,-4,3,-2,-8,92,88,78,30.33,30.28,30.21,10,6,2,26,20,32,0.00,3,,96
2014-1-26,8,4,0,5,1,-3,92,89,85,30.21,30.11,30.04,10,8,0,12,8,,0.00,4,Fog,77
2014-1-27,7,4,1,4,1,-2,92,88,83,30.14,30.09,30.03,10,7,1,20,12,,0.00,2,Snow,80
2014-1-28,10,8,6,9,6,3,92,89,85,30.03,30.01,29.99,10,8,2,24,17,28,0.00,7,Snow,89
2014-1-29,10,6,1,9,3,-2,92,88,83,30.02,29.98,29.96,10,10,10,13,6,,0.00,2,Snow,173
2014-1-30,18,13,8,18,15,6,100,94,88,30.23,30.15,30.03,10,2,0,22,11,26,0.00,8,Fog-Snow,280
2014-1-31,16,8,0,14,5,-5,92,89,83,30.29,30.23,30.18,10,10,9,10,5,,0.00,2,,225